Find Starlink 31744

NORAD ID: 59494 Int'l Des: 2024-071 Owner: SPXS Country: US Constellation: starlink operational
LEOCIRCULAR

Live Position

Loading 3D Globe...

About Starlink 31744

Description loading...

Upcoming Passes

Passes for default location (London). Set your location on the main map for personalized predictions.

Altitude History

Loading altitude history...

Two-Line Element Set

1 59494U 24071L 26139.80811759 .00002399 00000-0 96669-4 0 9998
2 59494 43.0011 305.7718 0001394 261.4751 98.5942 15.27577151118992
Epoch: May 19, 2026 • Age: 12 hours

Current Status

Altitude 482.6 km
Velocity 7.63 km/s
Sub-Earth Point 1.62°N, 136.02°E
Launch Date Apr 13, 2024
Age 2 years
Type internet

Technical Details

Classification Payload
Mass 730.00 kg
Dry Mass 700.00 kg
Total Mass 730.00 kg
Length 0.30 m
Diameter 4.10 m
Span 29.00 m
Shape Box + pan
Manufacturer SPXS
Bus Type Starlink V2M
Phase Status In Orbit
Owner/State SPXS/US

Most Searched